{"data":{"norad_id":60270,"epoch":"2026-05-25T04:02:43.397376Z","epoch_age_seconds":57602,"freshness":"FRESH","line1":"1 60270U 24131R   26145.16855784  .00000879  00000+0  41795-4 0  9991","line2":"2 60270  53.1611  57.5055 0001186  75.2701 284.8431 15.30194987103426","mean_motion":15.30194987,"eccentricity":0.0001186,"inclination_deg":53.1611,"raan_deg":57.5055,"arg_perigee_deg":75.2701,"mean_anomaly_deg":284.8431,"bstar":4.1795e-5,"rev_number":10342,"period_min":94.105654000551,"perigee_km":474.41722804396,"apogee_km":476.04284670522,"semimajor_km":6853.3670373746,"source":"CELESTRAK","updated_at":"2026-05-25T13:38:19.201532Z"}}